Wind_Speed
18 17 18 18 20 20 21 21 20 20 19 20 20 20 18 18 19 19 19 18 18 17 17 17 17 17 17 16 16 16 15 16 15 15 15 15 14 13 12 12 12 11 11 11 11 11 11 10 10 9 9 8 8 7 7 8 9 9 9 9 10 11 11 11 11 11 11 12 13 14 15 14 14 14 15 16 16 17 16 16 17 16 15 14 13
20 19 19 20 21 21 22 22 21 21 21 21 21 20 20 20 19 19 19 18 18 17 17 17 17 17 16 16 16 15 15 15 14 14 14 14 13 12 12 12 12 12 11 11 12 11 11 11 11 10 9 9 8 8 8 10 10 11 11 10 10 12 11 11 11 11 12 13 14 14 13 14 15 15 15 16 16 17 16 15 15 15 14 13 13
21 20 20 23 21 20 21 21 21 21 21 21 21 20 20 20 20 20 19 19 18 18 18 17 17 16 16 15 15 15 15 14 13 13 13 13 12 11 12 11 11 11 11 12 12 11 11 12 12 10 9 9 9 10 11 11 11 12 12 11 10 11 11 11 11 11 12 13 15 15 12 14 15 15 15 15 15 16 15 14 14 15 14 13 13
22 20 21 23 21 20 20 20 20 20 20 20 20 20 19 19 19 19 19 18 18 18 17 17 16 16 15 15 14 14 13 13 13 14 13 12 11 11 11 11 11 11 12 12 12 12 11 12 12 10 10 10 11 12 12 12 11 12 13 11 10 10 10 11 10 11 12 12 15 15 12 15 16 15 15 14 15 15 14 14 15 15 15 14 15
21 21 21 21 20 20 20 20 20 20 20 20 20 19 19 19 19 19 18 18 17 17 17 17 16 15 15 14 14 13 13 13 13 14 14 12 12 12 10 10 11 11 12 12 13 13 11 12 11 10 11 11 12 13 13 12 12 12 12 12 10 9 11 11 10 11 12 12 15 15 13 15 16 15 14 14 14 14 15 15 15 15 16 16 16
20 21 21 20 20 19 20 20 20 20 19 19 19 19 19 19 19 18 18 18 17 17 16 16 15 15 15 14 13 13 12 12 12 13 14 12 12 13 11 10 10 11 11 12 12 12 11 12 11 11 12 12 12 13 13 13 13 12 11 11 10 10 12 11 11 12 12 13 14 15 14 14 14 15 14 14 14 14 15 14 15 15 16 17 17
19 20 20 20 19 19 20 20 20 19 19 19 19 19 19 18 18 18 18 18 17 17 16 16 15 15 14 14 13 13 12 12 12 13 14 11 11 12 11 9 10 11 11 12 12 10 11 12 11 11 12 11 12 13 13 12 12 12 11 10 10 11 12 11 12 12 13 12 12 14 13 14 14 14 14 14 13 13 15 15 15 16 16 16 15
21 21 20 20 19 20 20 20 19 19 19 19 19 19 18 18 18 18 18 17 17 17 16 16 15 15 14 13 13 12 12 11 11 12 13 12 11 12 11 10 10 11 11 12 12 10 11 11 11 11 12 11 11 12 12 11 11 11 10 11 11 11 11 11 12 12 13 11 12 13 13 14 15 15 13 14 13 13 15 16 15 15 15 15 14
22 22 21 20 18 20 20 19 19 18 19 19 19 18 18 18 17 17 17 17 17 16 16 15 15 14 13 13 13 12 12 12 11 12 13 13 12 11 11 11 11 11 11 12 11 10 11 11 10 11 12 11 10 11 11 10 10 10 10 10 11 11 11 11 12 12 13 12 12 13 13 13 15 15 14 13 14 14 15 15 15 15 14 14 14
22 21 21 19 19 19 18 19 18 18 18 19 18 18 17 17 17 17 17 17 16 15 15 15 14 13 13 13 13 12 11 12 12 12 13 13 13 11 10 11 11 11 11 11 11 11 11 10 10 10 11 11 11 10 10 10 10 10 10 10 10 10 11 11 13 13 13 12 13 13 13 13 13 14 15 13 14 15 14 14 14 14 14 14 14
22 22 21 19 19 18 18 18 18 18 17 18 18 17 17 16 16 16 17 16 15 15 14 14 14 13 13 13 12 12 12 12 11 12 12 13 13 12 10 10 11 11 10 10 11 11 12 11 10 10 10 11 11 10 10 9 10 10 10 10 10 10 10 11 12 13 12 12 13 13 13 13 12 13 15 15 15 16 14 14 14 14 14 14 15
22 23 21 20 19 17 18 18 18 17 17 17 17 17 17 16 16 16 16 15 15 14 14 14 13 13 13 12 12 12 12 12 11 12 12 12 13 13 11 11 10 11 10 10 11 11 11 11 10 11 10 11 11 10 9 10 10 10 10 9 9 9 10 10 11 11 12 11 12 12 12 13 13 12 14 15 15 15 14 14 14 14 14 14 15
21 22 21 20 18 17 17 18 18 17 16 16 16 16 16 16 15 15 15 15 14 14 14 13 13 13 12 12 12 12 12 12 12 12 12 12 13 13 12 12 11 10 10 10 11 11 10 10 11 11 10 10 11 10 9 9 10 10 10 10 9 9 9 10 10 10 11 11 11 11 11 12 12 12 12 13 14 13 14 14 14 14 14 14 15
22 21 21 19 18 17 17 18 17 16 16 16 16 16 15 15 15 15 14 14 14 14 13 13 13 12 12 12 12 13 13 13 13 12 12 12 13 13 12 12 11 10 10 11 11 11 10 10 11 10 10 10 10 10 9 9 10 10 10 10 9 8 9 9 10 10 11 11 11 11 11 11 11 12 11 12 14 14 14 14 14 14 14 14 15
22 21 20 19 18 17 17 18 17 16 16 16 16 15 15 15 15 14 14 14 14 13 13 12 12 12 12 12 13 13 13 13 12 11 12 12 12 13 13 12 11 11 11 11 11 11 10 11 10 9 10 10 10 10 9 9 9 9 9 9 9 8 9 10 10 10 11 11 11 11 11 11 12 11 11 13 14 14 14 14 14 14 13 14 14
22 21 20 19 18 16 17 17 16 15 15 15 15 15 14 14 14 14 14 14 13 13 13 12 12 12 12 13 12 12 13 12 11 11 11 12 12 12 12 11 12 11 11 10 10 11 11 11 9 8 10 10 11 10 10 10 10 9 8 8 8 8 10 11 11 11 11 11 12 12 10 10 12 12 12 13 14 13 13 13 13 13 12 13 13
21 20 19 20 18 17 17 17 16 15 15 15 14 14 14 14 14 14 13 13 13 13 12 12 12 12 12 13 13 12 12 11 11 11 11 11 12 12 11 11 11 10 10 10 10 11 11 11 10 8 9 9 10 9 9 10 10 9 8 7 7 8 9 11 11 10 11 11 12 12 11 10 11 11 12 13 13 12 11 12 12 12 12 12 12
20 20 20 20 18 17 17 17 16 15 15 15 14 13 13 13 13 13 13 12 12 12 12 12 12 12 12 12 13 12 12 11 11 11 10 11 12 11 11 11 10 10 10 10 10 10 10 10 10 9 8 8 9 9 9 10 10 9 8 7 7 7 9 10 10 10 10 10 11 12 12 11 11 10 11 11 11 10 10 11 11 11 11 11 11
19 19 20 19 18 17 17 17 17 16 15 15 14 13 13 13 13 12 12 12 12 11 12 12 12 12 12 12 12 12 12 11 11 11 10 12 12 12 11 10 10 10 10 9 10 9 10 9 8 8 8 9 9 9 9 10 10 10 8 7 7 7 8 9 9 9 10 10 11 12 12 12 11 9 10 10 10 9 10 10 11 11 11 10 10
17 18 19 19 18 17 17 17 17 16 15 15 14 13 12 12 12 12 11 11 11 11 12 12 12 12 11 11 11 11 11 11 11 10 11 11 12 12 12 11 10 11 10 10 9 9 9 9 8 7 8 9 9 9 9 10 10 10 9 7 7 7 7 7 8 8 9 9 10 11 11 11 10 9 10 9 9 9 9 8 9 10 10 9 9
17 17 19 19 18 18 17 17 17 16 15 15 14 13 13 12 12 11 11 11 11 11 12 12 12 11 11 11 11 11 11 10 10 10 10 11 11 11 11 10 10 10 10 9 9 9 9 9 9 9 9 9 9 10 10 10 10 10 9 7 6 6 6 6 7 7 8 9 9 10 10 10 9 9 9 8 8 8 8 7 7 9 9 9 8
18 18 19 19 19 18 17 17 17 16 15 15 14 13 13 12 11 11 11 10 11 11 11 12 11 10 10 10 10 10 10 9 9 9 9 10 11 10 9 9 10 10 9 9 9 8 8 8 9 9 9 9 9 10 10 10 10 9 8 7 6 6 6 6 6 6 6 7 8 9 9 9 9 8 8 7 7 7 8 7 7 7 7 8 8
19 18 19 20 19 18 18 17 17 16 15 15 15 13 13 12 11 11 11 10 10 10 10 11 11 10 9 9 9 8 9 8 8 9 8 8 9 9 8 8 9 8 8 9 8 8 8 8 8 9 9 8 8 9 10 9 8 7 6 6 6 5 5 5 5 4 5 6 7 7 8 8 8 8 7 7 6 6 7 7 7 6 6 6 6
20 19 19 21 20 19 18 16 15 16 16 15 15 14 13 13 11 11 11 10 10 10 9 9 10 9 9 8 8 8 8 7 7 8 7 7 8 8 7 7 8 7 7 7 7 7 7 7 7 7 7 7 7 8 8 7 6 5 5 5 5 5 5 4 4 4 4 5 5 5 6 6 7 7 7 7 6 6 6 7 6 6 5 5 5
20 18 18 20 21 18 17 16 15 15 15 15 15 14 13 12 11 11 11 10 10 10 9 9 8 8 8 8 7 8 7 6 6 7 6 6 6 6 6 6 6 6 6 6 5 6 5 5 6 6 6 6 6 6 6 5 4 4 4 5 5 5 4 3 4 4 4 4 3 4 5 5 5 6 6 6 6 6 6 6 6 5 5 4 5
20 19 19 19 20 18 17 16 15 15 14 14 14 14 13 11 10 12 12 10 9 9 9 8 8 8 8 7 7 8 7 6 6 6 5 5 5 5 5 5 5 4 5 5 4 4 4 4 5 5 5 5 4 4 4 4 4 3 3 4 4 4 3 3 3 3 3 3 2 2 4 3 4 5 5 6 6 5 5 6 6 5 5 4 4
21 20 20 19 19 19 18 17 16 16 14 13 13 13 13 10 10 11 12 11 10 9 8 8 8 8 8 8 7 7 6 5 5 5 5 4 4 4 3 3 3 3 4 4 3 4 4 4 4 4 4 4 3 3 4 4 5 3 3 3 3 3 3 2 2 2 3 3 2 1 2 2 3 5 5 5 5 5 5 5 5 5 5 4 4
21 21 20 19 20 19 18 18 17 16 15 14 13 12 12 11 10 10 11 12 10 8 8 9 9 9 8 8 8 6 5 5 5 5 4 4 3 3 3 3 3 2 3 3 3 3 3 3 4 4 4 3 3 3 3 4 5 5 3 3 3 1 2 2 1 1 2 2 2 2 1 1 1 3 4 4 5 4 4 4 5 5 5 5 5
22 23 21 20 21 20 19 18 17 16 15 14 14 13 12 11 10 10 10 12 10 9 10 10 10 9 8 7 7 6 5 4 4 5 4 4 3 3 3 3 2 2 2 2 2 2 2 3 3 4 3 3 3 3 2 3 3 4 4 4 3 2 0 2 1 1 1 1 2 2 2 2 2 2 3 3 4 4 4 3 4 4 4 5 5
23 22 21 21 21 21 20 19 18 17 15 15 14 13 11 11 11 10 10 10 10 11 11 10 9 9 8 7 7 6 5 4 4 4 4 4 3 3 2 2 2 2 1 0 1 2 2 1 2 3 3 3 2 2 2 2 1 2 4 5 4 2 1 2 2 1 1 1 2 2 2 3 3 3 3 3 3 3 3 4 3 3 3 4 4
23 23 21 21 21 21 21 20 19 17 16 16 14 13 11 11 11 10 9 9 10 12 12 10 10 10 9 8 7 6 5 4 4 3 3 3 2 2 1 2 1 2 1 1 1 1 1 1 1 2 2 2 2 2 2 1 1 2 4 5 5 3 1 1 2 2 1 1 2 3 3 3 3 3 3 2 2 3 3 3 4 3 3 3 3
24 24 22 21 21 22 21 20 19 17 17 17 15 14 12 11 10 10 9 9 9 11 11 11 11 11 10 8 7 6 5 5 4 3 2 2 1 1 0 1 1 2 2 1 1 1 1 1 1 1 2 2 1 1 2 1 0 2 4 5 6 4 2 1 2 2 2 1 1 2 3 3 3 3 3 3 3 3 2 2 3 3 3 3 2
23 24 23 22 22 21 21 20 19 18 18 19 18 15 13 12 11 11 10 9 9 11 12 12 12 12 10 9 8 7 6 5 5 4 3 2 1 0 0 1 1 1 1 1 1 1 1 1 1 1 2 2 1 1 2 2 1 2 3 4 5 4 3 2 2 2 2 1 1 2 3 3 3 3 3 4 4 4 3 3 3 3 4 3 3
22 24 24 23 22 21 21 20 20 19 19 22 22 18 16 14 13 13 12 11 11 12 13 13 12 12 10 10 9 8 7 7 6 5 4 3 2 1 1 1 2 2 1 0 0 1 1 2 2 2 2 2 1 1 2 3 1 2 3 4 4 3 3 2 2 2 2 1 1 1 2 2 3 3 3 3 4 4 4 3 3 4 4 4 3
22 25 25 25 24 22 21 20 21 21 20 24 26 23 21 18 16 15 14 14 14 14 14 13 12 12 11 10 9 9 9 8 8 7 6 5 3 2 1 2 2 2 1 1 0 0 1 2 2 2 2 2 2 2 3 3 2 1 3 4 4 3 3 3 2 2 2 1 1 1 1 1 2 3 3 3 3 4 4 4 3 3 3 3 4
24 24 25 25 25 23 22 20 21 21 21 24 27 26 25 22 20 18 17 17 16 16 15 13 12 12 11 11 10 9 9 9 9 8 7 6 5 3 2 2 3 2 2 1 1 0 1 2 2 3 3 3 3 3 4 4 2 1 2 5 4 3 4 3 3 2 1 1 1 1 0 0 1 2 2 2 3 3 4 4 4 3 3 3 3
25 25 25 26 26 24 23 21 21 23 22 23 26 27 27 25 23 21 19 19 18 17 15 14 13 12 12 11 10 9 9 9 9 8 8 8 6 4 3 3 4 3 3 2 1 1 1 2 2 3 3 3 2 3 3 4 2 1 3 4 2 2 4 4 3 2 2 3 2 1 1 1 1 1 2 3 3 3 3 4 4 3 3 4 4
24 25 26 27 26 25 24 22 21 22 22 22 24 26 27 27 24 23 22 21 20 18 17 16 14 13 13 12 10 9 9 9 9 9 8 9 7 6 4 4 5 4 4 2 1 2 1 1 2 2 3 4 3 2 2 3 2 0 3 2 1 3 4 4 3 3 3 3 2 1 1 1 1 1 1 2 3 3 3 4 4 4 4 5 5
24 25 26 26 26 25 23 23 22 22 21 20 19 19 23 27 25 24 24 22 21 20 19 18 16 14 14 13 11 10 9 9 9 9 8 9 8 7 6 5 5 5 4 4 2 1 1 1 2 2 2 3 3 2 1 2 1 1 1 0 2 4 4 4 4 3 2 2 1 1 1 2 2 1 1 2 2 3 4 4 4 4 5 5 6
25 25 25 25 26 25 24 24 22 22 21 18 17 16 20 25 24 23 23 23 23 22 21 20 18 16 15 14 12 11 10 9 10 10 9 8 8 7 7 6 6 6 5 4 3 2 1 1 1 1 1 1 2 1 2 3 2 3 3 4 4 4 4 4 3 2 2 1 1 1 1 1 2 2 1 1 1 2 3 4 4 4 4 5 6
25 26 27 26 27 27 26 25 24 23 22 21 21 21 22 24 23 22 22 22 24 23 22 22 20 18 17 15 14 12 11 10 11 12 11 9 8 8 8 8 7 7 6 5 3 2 2 2 2 1 0 0 1 1 2 3 2 3 4 5 5 3 3 3 2 1 1 1 0 0 1 1 1 1 1 0 1 2 3 3 4 4 4 5 5
27 28 28 28 28 28 27 27 25 25 25 26 27 26 27 29 26 26 24 21 23 24 23 23 22 20 18 16 15 13 12 11 12 13 12 11 10 9 9 9 8 7 6 5 4 3 3 2 2 1 1 1 1 0 3 3 1 2 3 4 3 2 1 1 1 1 1 1 0 0 1 1 1 1 1 1 1 1 2 2 3 4 4 4 5
28 28 29 29 28 29 28 27 26 26 27 30 32 31 31 32 29 27 26 21 21 23 22 22 23 21 19 18 16 15 13 12 12 13 13 13 11 10 10 10 9 8 7 6 5 4 4 3 3 2 1 2 2 1 4 4 1 2 2 2 1 0 1 2 2 2 2 2 1 1 2 2 1 2 3 2 2 1 2 2 2 3 3 3 4
27 29 30 30 30 29 29 29 29 29 31 33 35 34 32 31 29 27 26 22 20 21 21 23 23 23 21 20 18 16 14 13 12 13 14 14 13 12 11 11 10 9 7 7 6 5 5 5 4 4 3 4 3 2 5 5 3 3 2 1 1 1 2 1 1 3 3 3 3 2 3 3 3 4 5 3 3 3 3 2 2 2 3 3 3
29 30 31 31 30 30 31 32 32 32 34 35 35 33 30 28 26 23 20 19 18 17 18 19 22 23 22 20 20 18 16 14 13 13 14 14 14 13 12 11 11 10 9 8 7 6 6 6 5 6 6 6 5 4 5 6 5 5 3 1 1 1 1 1 2 2 2 3 3 3 4 4 4 6 7 5 5 5 4 4 4 3 3 3 3
30 30 31 30 29 29 31 34 33 33 34 34 34 33 31 28 25 21 18 17 15 16 19 19 21 24 22 20 21 19 17 16 14 14 14 14 14 14 13 12 11 11 10 9 8 7 7 7 6 6 6 6 6 4 5 7 6 7 6 3 2 2 1 1 2 1 1 2 3 4 5 5 5 6 7 7 6 6 5 6 6 5 5 4 4
30 29 29 29 29 28 31 34 33 32 32 32 34 33 30 27 28 26 22 21 18 19 24 24 22 25 24 22 22 20 18 17 16 15 14 14 14 14 14 13 12 11 10 10 10 9 8 7 6 6 6 7 7 6 5 6 7 7 7 5 2 2 2 2 2 2 2 1 1 3 4 5 6 6 7 6 5 5 6 7 7 6 6 5 5
28 28 29 30 30 30 32 35 33 32 32 33 35 35 32 29 29 26 22 23 22 21 26 25 23 25 25 24 23 21 20 18 17 16 15 15 15 15 15 14 13 12 11 11 11 10 8 7 6 6 7 7 8 8 6 6 6 6 7 7 5 3 4 3 3 3 3 2 2 2 3 5 7 7 7 7 6 6 7 8 8 8 8 7 6
29 29 30 29 29 30 32 34 33 32 33 35 36 36 35 33 31 26 22 24 23 21 23 24 24 24 24 24 23 22 21 20 19 18 18 17 17 16 16 15 14 13 13 12 12 11 9 8 8 7 8 7 7 8 8 7 7 5 6 8 7 4 3 2 3 4 4 3 3 3 3 5 6 6 8 8 8 8 9 9 9 9 9 9 7
30 29 28 28 27 29 31 33 33 32 33 36 36 36 36 34 32 29 25 24 23 20 19 20 22 23 22 23 23 23 22 21 20 20 20 19 18 17 17 16 15 14 14 13 13 13 11 10 9 8 8 7 7 8 9 9 8 6 5 6 6 5 4 3 3 3 3 4 4 5 6 6 6 6 7 8 9 9 10 10 10 9 10 10 8
29 28 28 28 28 29 31 33 34 32 32 36 37 36 35 34 33 32 30 27 24 21 20 19 21 23 22 22 23 24 23 23 22 21 21 21 20 18 18 18 17 16 15 14 14 14 13 12 11 9 8 8 8 8 10 10 10 9 7 7 7 6 5 5 4 3 4 5 5 7 8 6 7 7 8 11 11 11 11 11 11 11 11 10 9
Wind_Direction
147 138 133 128 126 129 125 123 125 124 127 131 129 129 129 128 130 127 126 125 125 125 126 127 128 129 129 130 132 133 134 135 135 135 133 128 125 125 126 123 119 115 114 112 109 106 103 101 97 95 96 98 99 103 104 103 104 104 111 117 118 116 114 113 113 111 107 104 98 94 98 105 109 111 109 108 108 107 108 107 106 102 100 101 98
147 141 135 131 132 131 126 127 128 128 128 129 129 129 129 129 130 128 128 128 129 130 131 132 133 133 133 135 135 136 136 137 137 132 125 121 124 128 124 120 119 116 116 113 109 106 102 98 93 91 92 96 99 101 98 97 105 113 116 117 116 112 109 107 106 103 98 98 96 96 106 111 112 114 112 111 110 108 109 108 105 101 101 102 101
143 140 133 131 134 133 129 129 129 129 129 130 131 131 131 131 132 130 131 132 133 135 135 135 136 135 135 136 136 137 138 137 130 121 117 118 123 123 118 117 114 110 111 109 105 101 99 96 94 92 93 100 102 100 99 98 105 114 114 110 108 106 105 105 105 99 95 98 98 99 108 107 106 109 110 109 108 108 109 107 103 101 102 103 102
141 138 132 130 132 134 130 130 130 130 130 131 132 132 133 132 132 132 133 133 135 137 136 137 135 134 134 135 134 134 134 130 121 118 118 120 119 113 113 118 113 110 110 108 105 101 97 97 97 98 98 102 103 102 101 100 104 108 108 105 101 99 100 102 102 98 97 100 100 102 103 100 100 104 110 109 107 109 107 104 102 101 101 100 100
140 137 133 131 132 135 133 133 132 133 132 132 132 132 133 132 132 132 132 132 132 133 132 133 131 131 132 131 130 128 127 122 120 121 120 122 122 116 115 116 111 109 107 105 105 102 100 100 100 102 103 103 103 105 103 102 102 99 99 99 99 102 100 99 98 98 100 103 103 105 103 100 104 109 112 109 106 107 105 103 101 100 100 98 98
139 137 133 132 135 137 136 136 134 134 133 131 132 132 133 132 132 131 130 130 129 129 129 129 127 128 127 125 124 121 119 117 119 118 117 123 123 116 116 115 111 107 104 105 106 104 103 101 100 100 100 103 105 105 105 105 103 98 96 99 102 102 99 97 98 99 101 101 103 105 104 106 110 112 109 106 105 105 105 104 102 100 99 97 98
139 138 134 134 139 140 138 137 136 135 133 131 131 132 132 131 131 131 130 130 130 128 127 126 125 123 120 119 119 116 116 117 117 113 112 117 116 113 118 116 110 107 105 104 104 103 102 100 101 100 100 104 105 104 104 104 104 105 104 104 103 97 94 96 98 100 100 97 100 103 103 108 108 106 104 103 104 107 108 106 102 99 98 98 99
141 139 136 138 141 142 140 138 136 135 133 132 132 132 131 130 129 128 128 128 127 125 124 122 119 117 116 116 116 115 115 116 114 109 111 115 114 114 118 115 105 104 102 103 107 105 100 99 102 102 101 99 97 98 98 97 99 102 103 103 101 98 97 97 99 99 96 92 99 103 101 105 107 105 106 103 103 109 107 102 99 98 99 100 100
144 140 139 140 142 144 141 138 136 136 135 133 132 132 130 130 129 127 126 125 123 122 120 117 116 116 116 116 115 115 112 111 110 108 112 115 115 116 118 117 111 107 103 106 112 108 100 99 101 102 102 99 95 93 94 97 100 101 102 102 102 101 101 99 98 95 91 89 94 102 103 104 108 110 110 106 105 106 103 98 98 99 101 102 103
145 142 142 140 143 145 141 138 137 137 136 133 133 132 131 131 128 126 124 124 123 119 118 116 115 116 116 116 114 112 109 107 107 106 108 109 112 115 114 113 113 111 108 108 112 108 102 101 101 101 101 102 101 99 100 103 105 105 101 100 102 104 104 102 97 91 90 90 91 98 103 103 105 109 110 110 110 107 102 100 101 102 103 104 107
146 144 142 141 145 145 141 140 139 138 135 134 134 133 132 130 127 125 124 124 121 116 116 116 115 114 114 115 114 111 108 106 104 103 103 104 108 111 109 107 106 105 104 105 109 108 105 105 100 98 97 98 100 102 104 103 104 103 98 96 101 105 106 100 93 89 89 92 92 96 100 100 101 102 105 109 111 108 103 101 102 104 105 106 108
147 146 144 142 147 146 142 141 140 139 137 137 136 136 133 130 128 126 124 122 118 116 116 114 114 114 112 112 113 110 108 107 105 102 101 103 105 109 110 108 105 102 102 101 106 107 107 107 97 94 95 95 96 97 99 101 102 98 93 92 95 100 102 96 89 87 88 91 93 96 97 96 98 98 103 108 112 111 106 104 104 106 107 109 109
147 147 144 143 148 149 144 142 142 141 141 141 138 136 133 130 128 125 123 121 119 118 116 113 112 111 110 109 109 107 107 107 105 101 99 99 101 104 107 108 107 106 104 99 103 106 105 104 96 93 92 89 89 90 93 99 102 97 91 88 89 93 98 94 87 86 85 86 90 95 95 94 99 101 104 107 112 114 112 109 107 107 108 110 110
146 146 145 145 151 151 146 144 144 143 144 142 138 136 133 129 126 125 123 122 121 118 117 114 113 110 109 109 107 106 105 103 101 100 98 99 99 101 104 106 108 106 102 97 99 104 103 99 97 94 90 86 85 88 92 99 101 96 92 88 88 90 96 93 88 88 84 84 88 93 96 97 104 105 104 108 114 116 112 108 107 107 109 110 111
145 146 147 148 152 151 147 146 146 146 146 142 138 135 132 129 126 127 125 124 123 120 119 117 116 116 113 110 107 104 102 100 100 100 99 99 99 101 103 104 104 101 99 97 98 103 102 96 94 89 87 90 91 93 96 101 101 94 93 91 88 89 93 93 89 89 86 85 87 89 91 95 99 100 104 111 116 115 109 107 107 106 108 111 110
146 147 149 151 153 152 149 147 148 148 147 142 137 136 132 131 128 127 126 124 123 121 120 118 118 117 115 110 106 102 99 101 102 101 100 99 100 101 102 100 98 97 98 99 99 101 101 100 96 79 73 82 89 97 103 101 99 93 92 92 89 89 92 92 90 87 85 85 86 86 86 91 94 94 100 109 113 111 108 106 106 106 108 109 110
148 149 151 153 154 154 150 149 151 150 148 143 139 139 135 132 130 127 126 125 124 122 120 119 118 113 111 109 106 104 103 105 103 99 98 99 100 100 101 99 99 99 99 97 97 97 99 102 100 85 74 80 86 95 101 97 95 93 91 92 91 91 94 94 90 85 83 84 85 84 82 86 92 95 101 110 115 113 111 109 108 109 109 109 111
150 152 155 156 156 156 152 151 153 153 149 145 142 141 136 134 131 128 127 126 126 123 120 119 116 113 112 110 109 108 107 106 103 99 97 97 97 98 100 100 103 103 100 97 94 93 93 97 101 100 93 89 86 86 90 91 93 92 90 89 88 96 99 95 90 86 83 83 82 82 82 83 90 97 103 111 119 121 118 117 116 115 113 113 115
152 154 159 157 158 158 154 155 157 155 152 148 146 143 138 135 131 129 129 128 127 124 122 119 117 116 114 112 112 110 108 106 104 102 98 97 97 99 99 98 102 100 100 98 94 92 90 93 100 104 101 95 91 89 90 92 92 90 89 88 88 95 99 95 93 91 86 82 80 82 84 84 86 94 101 107 118 125 125 123 120 118 117 117 118
155 157 163 160 160 161 158 159 160 158 155 150 148 145 140 137 133 131 130 128 127 127 124 121 120 118 118 119 118 115 112 110 107 106 101 98 99 98 96 96 99 99 100 98 94 92 91 92 89 89 91 92 94 93 92 94 92 88 87 86 88 92 95 97 98 95 91 88 86 85 86 83 81 85 92 102 111 117 123 125 121 121 120 118 120
161 163 166 164 163 165 164 163 163 161 158 153 149 147 143 140 136 133 131 130 129 130 128 126 125 124 126 126 124 122 118 116 113 112 108 104 103 97 94 97 98 96 96 96 94 91 91 92 89 84 77 77 82 81 79 80 80 78 77 76 80 88 93 97 98 96 94 94 94 93 91 87 86 84 86 94 100 105 114 122 122 123 122 120 120
164 167 170 168 167 169 169 166 166 165 162 158 152 149 148 146 142 139 135 135 134 134 134 133 131 130 132 130 128 127 124 121 120 119 115 109 106 100 100 103 101 97 94 94 92 90 89 91 92 91 86 84 84 79 78 77 76 73 67 67 72 79 85 90 96 97 98 96 96 99 98 95 94 93 91 92 95 101 108 117 122 126 128 126 126
166 169 172 172 171 172 173 169 169 168 167 163 157 154 155 153 149 146 142 141 141 138 138 138 137 134 134 135 134 133 131 127 128 129 123 116 110 109 111 106 104 102 101 99 95 93 88 87 86 85 89 97 99 94 94 96 93 82 69 67 68 71 76 82 88 94 102 100 100 105 103 101 99 97 97 96 97 98 100 108 117 126 132 134 135
168 169 171 174 174 174 175 173 172 171 171 169 163 160 161 161 156 154 152 149 147 144 144 143 141 138 137 140 140 140 136 131 135 137 132 125 118 120 122 114 111 109 108 102 97 96 89 85 79 78 84 89 97 99 102 107 106 92 78 73 68 68 70 74 85 94 105 104 107 111 108 111 109 103 98 93 91 92 94 99 106 115 127 142 143
168 168 171 176 176 175 175 177 176 173 174 173 169 168 166 164 162 164 163 160 157 153 152 149 144 143 143 142 143 147 142 137 140 143 143 138 131 127 127 125 120 117 115 105 98 95 85 81 75 78 82 81 89 90 95 103 99 91 80 70 66 69 73 75 83 90 101 111 123 116 113 121 114 110 105 95 87 84 88 92 95 97 110 135 146
168 170 173 177 177 177 177 178 179 177 178 175 173 173 170 167 168 171 173 173 170 166 162 158 153 149 150 147 149 152 145 142 142 148 152 147 144 134 130 133 126 124 121 112 107 100 90 85 80 80 81 81 80 70 70 77 81 84 74 63 60 66 75 81 82 88 100 118 145 129 120 127 117 120 120 106 95 88 86 87 88 86 92 112 134
171 173 173 177 178 179 180 179 180 180 180 178 175 175 174 173 175 177 179 182 180 176 173 168 163 157 157 156 155 155 148 146 145 149 154 151 158 153 145 145 136 133 125 118 109 102 102 95 89 88 84 84 79 62 55 54 56 61 65 51 51 65 76 82 80 89 99 122 157 173 135 132 126 130 131 122 111 100 93 89 88 85 87 95 115
172 173 174 178 180 182 183 182 183 182 182 182 179 177 179 179 181 181 185 191 188 183 181 176 169 163 164 166 164 162 156 152 145 142 142 142 157 165 164 161 154 148 131 122 109 104 110 99 95 94 88 91 87 82 70 50 43 40 35 15 15 33 77 99 89 87 103 123 157 200 193 181 168 141 135 135 128 113 101 91 88 89 90 90 99
174 174 176 180 182 183 184 185 185 184 183 184 183 183 182 182 184 186 192 196 194 193 187 180 176 171 170 175 177 176 171 164 154 144 137 130 139 151 155 163 172 168 142 123 125 122 118 104 100 97 93 99 92 94 88 63 44 26 15 2 354 332 333 136 130 101 120 139 161 198 215 216 220 176 153 145 140 139 126 107 90 84 88 92 95
177 175 177 181 183 184 187 187 186 186 185 185 186 186 184 184 188 189 195 198 200 203 193 184 185 184 182 182 187 190 182 179 174 153 144 135 130 137 145 165 189 190 166 129 152 143 129 111 99 94 89 102 104 118 109 77 61 13 7 9 7 345 296 174 159 147 140 154 172 185 200 209 212 205 190 152 147 179 160 138 124 99 87 90 95
178 178 180 182 183 186 189 189 188 188 187 188 188 187 186 187 190 191 194 197 201 206 198 191 193 194 194 190 193 197 192 189 188 171 155 146 132 133 152 185 228 234 223 228 189 158 141 121 108 98 81 101 122 147 153 99 81 3 6 10 14 14 347 177 169 172 161 168 179 178 200 217 206 203 204 166 164 202 180 153 153 139 120 100 97
181 182 181 182 184 187 190 191 191 190 190 192 191 190 190 189 191 193 195 198 198 202 201 198 197 199 200 197 200 201 201 200 196 193 178 167 159 138 141 190 235 239 212 189 162 138 126 113 120 107 75 96 107 148 171 157 101 2 6 7 11 22 27 113 164 174 176 188 181 172 197 228 225 213 200 183 195 212 197 174 177 169 157 143 133
182 182 182 183 186 187 190 192 193 193 194 196 196 193 193 193 193 196 197 197 197 202 206 204 201 202 204 205 208 207 210 214 212 212 211 228 251 239 256 197 208 205 171 156 126 74 71 85 101 86 70 68 66 124 158 164 168 8 3 354 1 16 32 78 145 165 167 181 197 179 195 213 225 231 213 201 208 207 202 204 203 201 190 176 175
181 182 183 185 186 187 190 193 194 197 197 200 203 201 199 198 196 200 202 201 205 208 209 208 206 205 208 212 214 215 218 222 226 229 231 245 263 264 244 227 217 215 209 183 78 52 66 73 81 72 66 64 74 120 135 155 159 11 351 342 350 6 36 77 125 143 147 160 174 170 191 212 218 220 223 228 226 213 209 218 221 210 201 202 205
181 183 185 185 186 188 189 192 195 198 199 204 207 207 207 206 203 204 204 205 210 213 212 211 210 210 212 216 217 220 225 228 233 237 239 245 257 261 240 233 229 236 251 233 200 54 60 58 65 66 69 78 96 115 130 140 119 359 332 351 1 11 41 73 89 106 127 120 121 149 176 211 237 228 222 222 226 226 225 230 238 220 205 220 229
184 183 184 185 187 190 191 192 195 197 200 205 208 211 213 212 212 212 211 211 213 215 216 214 215 216 215 218 219 221 227 233 236 239 243 244 247 251 241 231 230 235 231 199 187 222 34 29 40 60 73 84 99 115 129 129 123 238 337 4 3 16 48 67 75 92 94 66 83 103 134 199 250 245 238 223 222 241 247 242 242 234 221 236 247
187 185 184 185 188 191 193 195 196 198 200 204 209 213 215 217 218 219 220 218 217 219 221 220 220 220 219 220 219 221 228 234 238 240 244 245 243 242 239 228 223 224 221 199 205 268 337 9 27 59 75 78 86 108 123 130 152 222 354 355 336 40 63 72 78 82 51 40 59 73 58 20 358 283 261 251 243 252 264 261 255 249 243 246 253
189 189 188 188 189 190 193 196 197 199 200 203 208 212 216 219 222 224 227 226 224 224 225 226 227 227 225 222 219 221 228 235 240 242 243 245 240 232 230 225 221 222 223 226 248 285 306 342 14 43 72 73 54 56 120 152 173 317 358 327 253 79 78 79 75 66 53 49 44 49 48 28 24 333 269 259 254 252 256 266 267 258 251 254 261
190 191 191 190 191 191 193 197 198 198 200 202 204 207 214 219 223 226 229 231 230 228 227 228 230 231 229 225 222 223 230 236 239 240 241 244 239 228 225 224 223 224 225 235 251 276 293 329 359 12 55 72 49 35 159 186 172 46 8 134 115 91 89 83 71 59 65 75 54 54 40 15 16 359 283 262 261 259 249 251 266 265 259 258 263
191 191 191 191 193 193 194 197 198 198 197 198 198 201 210 216 220 223 227 231 232 230 229 228 231 233 231 228 228 227 232 236 236 237 237 240 240 231 228 226 228 229 228 234 247 259 281 319 329 341 49 74 36 24 179 175 112 85 91 107 100 95 99 90 74 49 61 95 92 95 77 32 16 6 324 287 274 265 251 240 249 259 263 264 267
190 190 190 192 194 194 195 196 197 196 195 195 198 200 206 210 213 216 221 227 230 231 229 228 230 232 230 229 231 233 235 236 236 235 233 236 238 233 230 229 230 232 234 237 247 263 275 297 298 295 50 124 7 351 176 164 125 109 106 105 94 93 104 98 101 69 56 118 111 94 67 56 31 5 336 291 263 263 258 245 246 252 255 263 272
190 190 191 193 194 195 197 197 196 197 198 200 202 203 208 211 212 216 219 222 227 230 229 229 229 230 230 228 231 236 237 237 237 235 233 234 234 234 231 228 229 231 236 240 243 256 267 288 291 277 280 235 293 273 180 178 181 133 123 124 109 107 135 123 151 178 193 209 213 318 340 2 23 6 336 302 275 265 271 263 262 263 258 261 270
191 191 193 194 194 196 198 198 196 198 201 205 208 209 213 216 216 219 220 219 226 230 229 230 230 231 231 228 230 235 238 238 237 236 235 234 234 235 233 229 228 229 236 242 242 244 247 256 255 237 251 232 235 229 186 187 192 121 132 159 142 157 190 183 208 211 210 233 250 265 297 322 320 320 326 319 304 292 279 269 269 274 275 270 272
193 193 194 193 194 195 196 197 198 201 205 209 213 213 216 218 218 221 223 223 228 232 233 235 234 233 233 231 230 233 238 239 237 238 237 237 237 236 236 232 230 231 236 242 242 242 240 240 237 229 228 220 213 204 192 198 212 188 171 143 113 264 228 184 239 234 229 240 244 256 273 291 301 310 320 317 301 303 298 288 279 269 273 276 277
195 194 194 194 195 196 197 199 202 205 209 211 213 213 213 214 213 215 220 222 226 228 229 231 231 231 232 232 231 232 237 239 238 239 240 241 241 239 239 237 235 236 237 240 241 240 239 239 242 235 230 225 214 202 197 203 221 213 197 160 161 253 272 4 312 260 234 251 248 251 268 279 289 300 310 311 308 310 304 303 309 309 300 287 274
197 196 195 196 196 196 197 200 202 205 208 210 211 209 209 208 205 201 201 205 207 212 218 221 223 226 226 228 230 230 235 239 238 240 242 244 245 242 241 239 239 240 239 240 240 238 236 234 243 242 232 231 224 212 203 203 218 217 210 227 273 301 329 322 304 303 272 266 260 260 268 274 278 289 299 303 305 306 305 309 312 315 313 304 294
197 196 195 196 196 195 196 199 201 203 205 207 208 207 205 204 205 203 200 201 201 210 220 222 222 224 224 226 228 230 233 236 238 241 244 246 247 245 243 242 240 241 240 240 238 238 236 228 238 243 232 231 224 218 213 204 212 219 219 232 256 285 292 277 281 313 318 289 281 278 270 270 276 280 286 288 291 294 301 309 309 305 306 304 301
196 194 194 195 195 194 197 199 201 203 203 205 207 207 204 202 205 205 202 206 208 214 222 222 223 226 225 226 229 231 233 234 236 241 245 248 249 247 246 245 242 242 242 241 238 238 237 231 234 238 232 230 224 221 218 207 211 217 221 229 238 261 285 287 277 287 296 295 300 291 275 281 283 277 278 279 277 279 289 300 304 304 304 304 301
196 196 194 194 193 193 198 200 201 202 204 206 207 207 207 205 205 203 203 210 211 214 219 220 222 225 225 227 230 231 233 234 236 240 244 247 250 250 249 248 246 247 246 243 240 237 236 234 233 234 234 232 227 225 224 221 223 221 217 223 229 246 272 284 272 269 280 285 292 302 300 299 294 285 287 286 279 279 281 285 290 295 299 303 304
197 197 194 192 192 192 196 199 201 202 203 206 206 206 207 206 206 205 205 208 209 209 212 214 219 220 222 226 229 231 233 234 237 240 243 245 250 251 250 251 249 250 250 245 242 240 238 237 236 235 236 235 232 230 231 232 232 229 220 219 219 227 242 254 262 260 264 267 276 292 298 300 305 304 302 296 286 280 278 277 280 280 285 291 296
195 195 193 192 192 192 195 198 201 201 201 205 206 205 206 206 207 207 208 208 206 205 205 207 213 215 217 221 226 229 231 233 236 240 242 244 248 251 250 251 251 251 252 249 246 243 240 241 241 238 237 239 237 235 238 239 239 237 232 228 229 233 240 247 258 261 268 269 271 287 293 298 303 297 294 296 293 284 279 276 275 272 273 278 280
Height
821 822 823 822 823 824 825 825 826 828 829 831 833 834 833 834 834 836 837 838 838 839 840 841 841 842 843 844 845 845 845 846 846 847 847 848 849 849 850 850 851 852 852 852 852 852 852 852 853 853 853 854 854 854 854 854 853 854 854 854 854 853 853 853 853 853 854 854 855 857 857 857 857 857 858 859 859 859 860 860 861 861 861 861 862
821 823 824 825 826 827 828 828 830 831 833 834 835 835 835 836 837 838 838 839 840 840 841 842 842 843 844 844 845 845 846 846 847 848 849 851 850 850 851 852 852 853 853 852 853 853 853 853 854 854 854 854 854 854 855 855 854 853 854 854 855 854 854 854 854 854 854 855 857 858 857 857 857 858 859 860 860 859 860 862 862 862 862 862 863
821 824 825 826 828 829 830 830 832 833 834 835 836 836 837 838 838 839 839 840 841 841 842 843 843 844 845 845 846 846 847 847 848 850 852 852 852 852 852 852 853 853 853 853 854 854 854 854 854 854 854 854 854 854 855 856 855 854 854 855 856 856 856 855 855 855 856 857 858 858 858 859 859 859 860 861 861 861 862 863 863 862 863 863 864
822 824 826 827 828 830 831 832 833 833 835 835 836 837 838 839 839 840 840 841 842 842 843 844 844 845 846 846 846 847 847 848 850 851 853 852 852 853 853 853 853 854 854 854 854 854 855 855 854 854 854 854 854 855 856 856 856 856 855 856 858 858 857 857 857 857 857 858 859 859 858 860 860 861 862 862 862 863 863 863 863 863 864 864 865
823 824 826 827 829 830 831 832 834 834 835 836 837 838 838 839 840 841 841 842 842 843 844 845 845 846 846 847 847 848 848 850 851 852 854 853 852 853 853 853 853 854 854 854 854 855 855 855 855 855 855 855 855 856 856 856 857 857 856 858 859 859 858 858 858 858 858 858 860 860 860 861 862 862 863 863 863 864 864 864 864 864 865 865 866
822 824 826 828 829 831 832 833 834 836 836 837 838 838 839 840 841 841 842 843 843 844 845 845 846 847 847 848 848 849 850 850 851 853 854 853 852 854 853 853 854 854 854 854 855 855 856 856 856 856 856 856 857 857 857 857 858 858 858 859 860 860 859 859 859 859 859 859 860 861 862 862 862 863 864 863 864 865 865 865 866 866 866 867 867
822 824 826 828 830 832 833 834 835 836 837 838 838 839 840 841 841 842 843 844 844 845 846 846 847 848 848 849 849 850 851 851 852 853 854 853 853 854 853 853 854 854 854 854 855 856 856 856 857 857 857 857 857 858 858 858 858 859 860 861 861 860 860 860 860 860 860 860 861 862 863 863 863 863 864 864 866 867 866 866 866 866 867 868 869
823 825 827 829 831 832 834 835 836 837 838 839 839 840 841 842 842 843 844 845 846 846 847 847 848 849 849 850 850 851 851 852 852 853 855 854 854 854 854 854 854 854 855 855 856 857 857 857 858 858 858 857 857 858 859 858 859 860 861 862 862 861 861 861 861 861 861 861 862 862 863 863 864 864 864 865 867 868 867 867 867 868 869 870 870
824 826 828 830 832 833 835 836 837 838 839 839 840 841 842 842 843 844 845 846 847 847 848 848 849 850 850 851 851 852 852 852 853 853 855 855 855 855 855 855 855 856 856 856 857 858 858 858 859 860 860 859 858 858 859 860 860 861 862 863 862 862 862 862 862 862 862 863 863 863 864 864 866 867 867 866 867 868 867 868 868 870 871 871 872
825 826 829 831 833 834 835 836 838 839 839 840 841 842 843 843 844 845 846 847 847 848 849 849 850 851 851 852 852 853 853 853 853 854 854 855 856 856 856 857 857 858 858 858 859 859 859 860 860 860 861 861 861 861 861 862 862 863 864 864 863 863 863 863 863 863 863 864 864 865 865 866 867 869 870 869 869 869 869 870 871 872 872 873 873
825 827 830 832 833 835 836 837 838 839 840 841 842 843 844 844 845 846 847 848 848 849 850 851 851 852 852 852 852 853 854 854 854 854 855 856 857 857 856 857 858 858 859 860 860 860 860 861 861 861 862 862 863 863 863 863 864 864 864 865 864 864 864 864 864 865 865 865 866 866 867 867 867 869 870 870 870 870 871 872 872 873 873 874 874
826 828 830 833 834 836 837 838 839 840 841 842 843 843 844 845 846 847 848 849 849 850 851 852 852 853 853 853 853 854 855 855 855 855 856 857 858 858 858 858 858 858 860 860 861 861 861 862 862 862 862 862 863 863 864 864 865 865 865 865 865 865 865 865 866 866 866 867 867 868 869 869 869 869 870 871 871 872 872 873 874 874 875 875 875
827 829 831 833 835 837 838 839 840 841 842 843 844 844 845 846 847 848 849 850 850 851 852 853 853 854 854 854 854 855 856 856 856 857 857 858 858 859 859 859 859 860 861 861 862 862 862 863 863 864 863 863 863 863 864 865 865 866 866 866 866 866 866 867 867 867 868 868 868 869 870 871 871 872 872 872 873 873 874 874 875 875 876 876 876
827 829 831 834 835 837 838 840 841 842 843 843 844 845 846 847 848 849 850 851 851 852 853 854 854 855 855 855 856 856 856 857 857 858 858 859 859 859 859 860 861 861 862 862 863 863 863 863 864 865 864 863 863 864 865 866 866 867 867 867 868 868 868 868 868 869 869 869 870 870 871 872 873 873 873 874 874 875 875 876 876 876 877 877 877
827 829 831 834 836 838 839 841 842 843 843 844 845 846 847 848 849 850 851 851 852 853 853 854 855 856 856 857 857 857 857 858 859 859 859 860 860 860 860 861 862 862 863 864 864 865 865 865 865 865 865 865 865 865 866 867 867 868 868 869 869 869 869 869 870 870 870 871 871 871 872 873 873 874 874 874 875 876 876 877 877 877 878 878 878
828 830 832 834 836 838 839 841 842 844 844 845 846 847 848 849 850 851 851 852 853 854 854 855 856 856 857 857 858 858 858 859 860 860 861 861 861 862 862 863 863 864 864 865 865 866 866 866 866 865 865 866 866 866 867 868 868 869 869 870 870 870 870 870 871 871 872 872 872 873 873 874 874 875 875 876 876 877 877 878 878 878 879 879 879
829 831 833 835 837 839 840 842 843 844 845 846 847 848 849 850 851 851 852 853 854 855 855 856 856 857 857 858 859 859 860 860 861 861 861 862 862 863 863 864 864 865 865 866 866 866 867 868 868 867 866 867 867 868 868 869 869 869 870 871 871 871 872 872 872 873 873 873 874 874 875 875 875 876 876 877 877 878 878 878 879 879 880 880 881
830 832 834 836 838 839 841 842 843 845 846 846 848 849 850 851 851 852 853 854 854 855 856 857 857 858 859 859 860 860 861 861 862 862 862 863 863 864 864 865 865 866 866 866 867 867 868 868 869 869 869 869 869 870 870 869 869 870 871 871 872 873 873 873 874 874 874 875 875 875 876 876 876 877 877 878 878 879 879 880 880 880 881 881 882
831 833 835 837 838 840 841 843 844 845 846 847 848 849 850 851 852 853 853 854 855 856 856 857 858 859 859 860 861 861 862 862 863 863 863 864 864 865 865 866 866 867 867 868 868 868 869 869 870 871 871 871 871 871 871 870 870 871 872 872 873 874 874 875 875 875 875 876 876 877 877 877 878 878 878 879 880 880 880 881 881 882 882 882 883
832 834 835 837 838 840 841 843 844 845 846 847 848 849 851 852 852 854 854 855 856 856 857 858 859 859 860 861 862 862 863 863 864 864 864 865 865 866 866 867 867 868 868 869 869 869 870 871 871 871 872 872 872 872 872 872 871 872 873 873 874 875 875 876 876 876 877 877 878 878 878 879 879 879 879 880 880 881 881 882 882 882 883 883 884
833 834 835 837 839 841 841 843 844 845 847 847 849 850 851 852 853 854 855 856 856 857 858 858 859 860 861 861 862 863 863 864 865 865 866 866 866 867 867 868 868 869 869 870 870 871 871 872 872 872 872 872 871 871 871 872 872 872 874 874 875 876 876 877 877 877 877 878 879 879 880 880 880 880 881 881 881 882 882 882 883 883 883 884 884
832 834 835 837 839 840 841 843 844 845 847 848 849 850 852 853 854 855 855 856 857 858 858 859 860 860 862 862 863 863 864 865 865 866 866 867 867 868 868 869 869 870 870 871 871 872 872 873 873 873 874 874 873 872 873 873 874 875 875 876 876 877 877 877 878 878 878 879 880 880 881 881 881 882 882 882 882 882 883 883 883 883 884 884 885
831 833 835 837 839 840 842 843 844 845 847 848 849 850 852 853 854 855 856 857 857 858 859 859 860 861 862 862 863 864 865 865 866 867 867 868 868 869 869 870 870 871 871 872 872 872 873 873 874 874 875 876 876 876 876 876 877 877 877 877 877 877 878 878 878 879 879 880 880 881 881 882 882 882 883 883 883 883 883 883 884 884 884 885 886
830 832 834 836 838 840 842 843 844 846 847 848 850 851 852 853 854 855 856 857 858 859 859 860 861 862 862 863 864 864 865 866 866 867 868 869 869 869 870 870 871 871 872 872 873 873 874 874 874 875 876 876 877 878 878 879 879 879 879 879 878 878 878 878 879 880 880 880 881 881 882 882 882 883 883 883 883 884 884 884 884 885 885 885 886
830 832 834 836 838 840 842 843 844 845 847 848 850 851 852 853 854 855 856 857 858 859 860 861 861 862 863 864 864 865 866 866 867 868 868 869 869 870 870 871 872 872 873 873 874 874 874 875 875 876 876 877 877 878 879 880 880 880 880 879 879 879 879 879 879 880 881 881 881 881 882 882 883 883 883 884 884 884 884 885 885 885 885 886 886
830 832 834 836 838 840 842 843 844 846 847 849 850 851 852 854 854 855 856 857 858 859 860 861 862 863 863 864 865 866 866 867 868 868 869 869 870 871 871 872 872 873 873 874 874 874 875 875 876 876 877 877 878 878 879 879 880 880 880 880 880 880 880 879 879 880 880 881 881 882 882 883 883 884 884 884 885 885 885 885 886 886 886 886 887
829 831 834 836 838 840 841 843 844 846 847 849 850 851 852 854 854 855 856 857 859 859 861 861 862 863 864 865 865 866 867 868 868 868 869 869 870 871 872 872 873 874 874 874 875 875 875 876 876 876 877 878 878 878 878 879 879 880 880 880 880 880 880 880 880 880 881 881 881 882 882 883 884 884 884 885 885 886 886 887 887 887 887 887 887
828 831 833 835 837 839 841 842 844 845 847 849 850 851 853 854 854 855 856 858 859 860 861 862 863 863 864 865 866 867 868 868 869 869 869 870 871 871 872 873 873 874 874 875 875 875 876 876 876 877 877 878 878 879 879 879 879 879 880 880 880 880 881 881 881 881 881 881 882 882 882 883 884 884 885 885 886 887 887 888 888 888 888 888 888
827 830 833 835 837 838 840 842 844 845 847 848 850 851 852 853 854 856 857 858 859 860 861 862 863 864 865 866 867 868 868 869 869 869 870 870 871 872 872 873 873 874 874 875 875 875 876 876 876 877 877 878 878 879 879 879 879 879 880 880 880 880 880 881 881 881 882 882 882 882 883 883 884 884 885 885 886 887 887 888 888 889 889 889 889
827 829 832 834 836 838 840 841 843 845 847 848 849 851 852 853 854 856 857 858 859 860 861 862 863 864 865 866 867 868 868 869 869 869 870 871 871 872 873 873 873 874 874 875 875 875 876 876 876 877 878 878 878 879 879 879 880 880 880 880 880 880 880 881 881 882 882 883 883 883 883 884 884 885 885 886 886 887 887 888 888 889 889 889 890
826 828 831 833 835 837 839 841 842 844 846 848 849 850 851 853 854 855 857 858 859 860 861 862 863 864 865 866 867 868 868 869 869 870 870 871 872 873 873 873 874 874 874 875 875 875 876 876 876 877 878 878 878 878 879 879 880 880 880 880 880 880 880 881 882 882 883 883 883 884 884 884 884 885 885 886 887 887 887 888 888 889 889 890 890
824 827 829 832 834 836 838 840 842 843 845 847 848 850 851 852 854 855 856 858 859 860 861 862 863 864 865 866 867 867 869 869 870 870 870 871 872 873 873 874 874 874 874 875 875 875 875 876 876 877 877 878 878 878 879 879 880 880 880 880 880 880 881 881 882 883 883 883 883 884 884 884 885 886 886 886 887 887 888 888 889 889 889 890 890
822 825 828 831 833 835 838 839 841 842 844 846 847 849 851 852 853 854 856 857 858 859 861 862 862 864 864 865 867 867 868 869 870 870 871 872 872 873 873 874 874 874 874 874 875 875 876 876 877 877 877 878 878 878 879 880 880 880 880 880 880 881 881 881 882 883 884 884 884 885 885 885 885 886 887 887 888 888 888 889 889 889 890 890 890
821 825 827 829 832 834 836 838 840 841 843 845 846 848 850 851 852 854 855 856 858 859 860 862 862 863 864 865 866 867 868 869 870 871 871 872 872 873 874 874 874 874 874 874 875 875 876 876 877 877 878 878 878 878 879 879 880 880 880 881 881 881 881 882 883 883 884 885 885 885 886 886 886 887 887 888 888 888 889 889 889 890 890 890 891
820 822 825 827 830 833 835 837 838 840 842 843 845 847 849 850 852 853 854 856 857 859 860 861 862 863 864 865 866 867 868 869 870 871 871 872 873 873 874 874 874 874 875 875 875 875 876 877 877 878 878 878 878 878 879 880 880 880 880 881 881 881 881 882 883 884 884 885 885 886 886 887 887 887 887 888 888 888 889 889 889 890 890 891 891
817 820 823 826 829 831 833 835 837 839 840 842 844 846 848 849 851 852 854 855 857 858 860 861 862 863 864 865 866 867 868 869 870 871 872 872 873 874 874 874 874 874 875 875 875 876 876 877 877 878 878 879 879 879 879 880 880 880 881 881 881 881 882 883 883 884 885 885 886 886 886 887 887 887 887 888 889 888 889 889 890 890 890 891 891
816 819 821 824 827 829 831 834 835 837 839 841 843 845 847 849 851 852 853 855 856 858 859 861 862 863 864 865 866 867 868 869 870 871 872 872 873 874 874 874 874 874 875 875 875 876 876 877 877 878 878 879 879 879 879 880 880 881 881 881 881 882 883 883 884 884 885 885 886 886 887 887 887 887 888 888 889 889 889 889 889 890 890 890 891
815 817 820 822 825 827 830 832 834 836 838 840 842 844 846 848 850 852 853 854 856 857 859 860 861 862 863 864 865 866 868 869 870 870 871 872 873 874 874 874 875 875 875 875 876 876 876 877 877 878 878 878 879 879 880 880 880 881 881 881 881 882 883 883 884 884 885 886 886 886 887 887 887 888 888 888 889 889 889 889 889 889 890 890 890
813 816 818 821 823 826 828 831 833 835 837 839 841 844 845 847 849 851 852 853 855 856 858 859 860 861 862 864 865 866 867 868 869 870 871 872 872 873 874 874 875 875 875 875 876 876 876 877 877 878 878 878 879 879 880 880 881 881 881 881 882 883 883 884 884 885 885 886 886 886 887 887 887 888 888 888 889 889 889 889 889 889 889 889 890
811 814 817 819 822 824 827 829 832 834 836 838 841 843 844 845 848 849 851 852 853 855 857 858 859 860 861 863 864 865 867 867 869 870 870 871 872 873 874 874 875 875 875 876 876 876 877 877 877 878 878 879 879 879 880 880 881 881 881 882 882 883 884 884 885 885 886 886 886 887 887 887 887 888 888 888 888 889 889 889 889 889 889 889 889
809 812 814 817 819 822 825 826 829 832 834 835 838 839 840 843 845 847 849 850 852 854 855 857 858 859 861 862 863 864 866 867 868 869 870 871 872 873 873 874 874 875 875 876 876 876 877 877 877 878 878 879 879 879 880 880 881 881 882 882 883 883 884 884 885 885 886 887 887 887 887 887 887 887 888 888 888 888 888 888 888 889 889 889 889
805 808 811 814 817 819 822 823 826 829 830 832 834 836 837 840 842 844 847 849 851 852 854 855 857 858 859 861 862 863 864 866 867 868 869 870 871 872 873 874 874 875 875 875 876 876 876 877 877 878 878 879 879 880 880 880 881 881 882 883 883 884 884 884 885 886 886 886 887 887 887 887 888 887 887 887 887 888 888 888 889 889 889 889 889
802 806 808 811 814 816 819 821 823 825 827 829 830 833 835 837 841 843 846 848 849 851 853 854 856 857 858 860 861 862 863 864 866 867 868 869 871 872 872 873 874 874 875 875 876 876 877 877 877 878 878 879 879 880 880 880 881 882 882 883 884 884 885 885 885 886 886 886 886 887 887 887 887 887 887 887 887 888 888 888 889 889 889 889 889
800 802 805 808 810 813 815 818 821 822 824 826 828 831 834 837 840 842 844 847 849 850 852 853 854 856 857 858 859 861 862 863 865 866 867 868 869 871 872 872 873 874 874 875 876 876 877 877 878 878 878 879 879 880 880 881 881 882 883 884 884 886 887 885 884 885 886 886 886 886 886 887 887 887 887 887 887 887 887 888 888 888 888 888 888
795 798 800 803 806 809 812 814 817 819 821 824 827 830 833 836 839 841 844 846 847 849 850 851 852 854 855 857 858 859 861 862 863 865 866 867 868 869 870 871 872 873 874 875 875 876 877 877 878 878 878 879 879 880 880 881 881 882 883 884 885 887 887 884 884 885 885 885 886 886 886 886 886 886 886 886 887 887 887 887 887 887 887 887 887
790 794 797 801 804 807 809 812 814 817 819 822 825 828 831 834 836 839 841 843 845 846 846 848 850 852 854 855 856 858 860 861 862 864 865 866 867 868 869 870 871 872 873 874 875 875 876 876 877 877 878 878 879 880 880 881 881 882 882 883 884 886 885 884 886 886 885 884 885 885 885 885 886 885 885 886 886 886 886 886 886 886 886 886 886
787 792 795 799 801 804 806 809 812 815 817 820 823 826 829 831 833 835 837 839 841 842 843 846 848 850 852 854 855 857 858 860 861 862 863 865 866 867 868 869 870 871 872 873 874 874 875 876 876 877 877 878 879 879 880 881 881 882 882 883 884 884 885 885 885 886 886 885 884 884 885 884 885 885 885 885 886 886 886 885 886 886 886 886 886
786 789 792 795 798 801 804 807 810 812 815 818 820 823 826 828 831 833 835 837 838 840 842 844 846 848 850 852 854 856 857 859 860 861 862 863 864 865 867 868 869 870 871 872 873 874 874 875 875 876 877 877 878 879 880 880 881 881 882 883 884 884 885 885 885 885 886 886 884 883 883 884 883 884 884 884 885 885 885 885 885 885 885 885 885
783 785 788 792 795 798 802 805 808 810 813 815 818 820 823 825 828 831 833 835 837 839 841 843 845 847 849 851 852 854 856 857 858 860 861 862 863 864 865 867 868 869 870 871 872 873 873 874 874 875 876 876 877 878 879 880 881 881 882 883 884 884 885 885 885 885 885 886 885 882 882 883 882 883 883 883 884 884 884 884 884 884 884 884 884
779 783 786 790 793 796 800 803 805 808 810 813 815 818 820 823 826 828 830 832 835 837 839 841 843 845 847 849 850 852 854 855 857 858 859 861 862 863 864 865 867 868 869 870 871 872 872 873 874 874 875 876 877 877 878 879 880 881 882 882 883 884 885 885 885 885 884 885 885 882 881 882 882 882 882 883 883 883 883 883 883 883 883 883 883
776 780 783 786 790 793 796 799 803 806 808 810 813 815 818 820 823 825 827 830 832 835 837 839 841 843 845 847 849 850 852 853 855 856 857 859 860 861 863 864 865 867 868 869 870 871 872 872 873 874 874 875 876 876 877 878 879 880 881 882 883 883 884 884 884 884 884 884 884 882 881 881 882 882 882 882 882 882 882 882 882 882 882 882 882